Weather History for KLGD - April, 2013

Change the Weather History Date:

Monday, April 29, 2013

  Actual Average Record
Temperature  
Mean Temperature 47 °F -  
Max Temperature 55 °F 59 °F 80 °F (1987)
Min Temperature 39 °F 35 °F 24 °F (1975)
Degree Days  
Heating Degree Days 18    
Moisture  
Dew Point 28 °F    
Average Humidity 44    
Maximum Humidity 66    
Minimum Humidity 21    
Precipitation  
Precipitation 0.01 in - - ()
Sea Level Pressure  
Sea Level Pressure 29.93 in    
Wind  
Wind Speed 12 mph (NW)    
Max Wind Speed 33 mph    
Max Gust Speed 45 mph    
Visibility 9 miles    
Events      
Averages and records for this station are not official NWS values.
T = Trace of Precipitation, MM = Missing Value Source: NWS Daily Summary

Daily Weather History Graph

Daily Weather History Graph

Search for Another Location

Airport or City:

Trip Planner

Search our weather history database for the weather conditions in past years. The results will help you decide how hot, cold, wet, or windy it might be!

Date:

Astronomy

Apr. 29, 2013 Rise Set
Actual Time 5:43 AM PDT 7:56 PM PDT
Civil Twilight 5:10 AM PDT 8:28 PM PDT
Nautical Twilight 4:30 AM PDT 9:09 PM PDT
Astronomical Twilight 3:46 AM PDT 9:54 PM PDT
Moon No Moon Rise 9:04 AM PDT (4/29)
Length of Visible Light 15h 17m
Length of Day
14h 13m
Waning Gibbous, 79% of the Moon is Illuminated
Apr 29
Waning Gibbous
May 2
Last Quarter
May 9
New
May 17
First Quarter
May 24
Full

Hourly Weather History & Observations

Time (PDT) Temp. Windchill Dew Point Humidity Pressure Visibility Wind Dir Wind Speed Gust Speed Precip Events Conditions
12:15 AM 46.4 °F 45.2 °F 32.0 °F 57% 29.98 in 10.0 mi SSW 3.5 mph - N/A   Overcast
12:35 AM 46.4 °F - 32.0 °F 57% 29.97 in 10.0 mi Calm Calm - N/A   Overcast
12:55 AM 46.4 °F 43.5 °F 33.8 °F 62% 29.96 in 10.0 mi South 5.8 mph - N/A   Mostly Cloudy
1:15 AM 46.4 °F 44.3 °F 33.8 °F 62% 29.95 in 10.0 mi SSE 4.6 mph - N/A   Mostly Cloudy
1:35 AM 46.4 °F 45.2 °F 33.8 °F 62% 29.94 in 10.0 mi SSE 3.5 mph - N/A   Overcast
1:55 AM 48.2 °F - 33.8 °F 58% 29.93 in 10.0 mi Calm Calm - N/A   Overcast
2:15 AM 48.2 °F - 33.8 °F 58% 29.92 in 10.0 mi Calm Calm - N/A   Overcast
2:35 AM 48.2 °F - 33.8 °F 58% 29.92 in 10.0 mi Calm Calm - N/A   Overcast
2:55 AM 50.0 °F - 33.8 °F 54% 29.91 in 10.0 mi ESE 3.5 mph - N/A   Overcast
3:15 AM 48.2 °F - 33.8 °F 58% 29.91 in 10.0 mi SW 3.5 mph - N/A   Overcast
3:35 AM 48.2 °F - 33.8 °F 58% 29.89 in 10.0 mi SW 5.8 mph - N/A   Mostly Cloudy
3:55 AM 48.2 °F - 33.8 °F 58% 29.89 in 10.0 mi SE 4.6 mph - N/A   Scattered Clouds
4:15 AM 51.8 °F - 33.8 °F 50% 29.89 in 10.0 mi NNW 5.8 mph - N/A   Mostly Cloudy
4:35 AM 55.4 °F - 35.6 °F 47% 29.87 in 10.0 mi West 13.8 mph 20.7 mph N/A   Mostly Cloudy
4:55 AM 55.4 °F - 35.6 °F 47% 29.87 in 10.0 mi WNW 15.0 mph 27.6 mph N/A   Scattered Clouds
5:15 AM 55.4 °F - 33.8 °F 44% 29.87 in 10.0 mi WNW 23.0 mph 29.9 mph N/A   Mostly Cloudy
5:35 AM 53.6 °F - 33.8 °F 47% 29.87 in 10.0 mi West 17.3 mph 31.1 mph N/A   Overcast
5:55 AM 51.8 °F - 35.6 °F 54% 29.87 in 10.0 mi WNW 15.0 mph 31.1 mph N/A   Overcast
6:15 AM 51.8 °F - 35.6 °F 54% 29.88 in 10.0 mi WNW 13.8 mph 23.0 mph N/A   Overcast
6:35 AM 50.0 °F - 35.6 °F 58% 29.89 in 8.0 mi WNW 13.8 mph 18.4 mph 0.01 in   Overcast
6:55 AM 48.2 °F - 37.4 °F 66% 29.88 in 10.0 mi WNW 5.8 mph - 0.01 in   Mostly Cloudy
7:15 AM 51.8 °F - 37.4 °F 58% 29.88 in 10.0 mi WNW 16.1 mph 24.2 mph N/A   Partly Cloudy
7:35 AM 51.8 °F - 37.4 °F 58% 29.88 in 10.0 mi West 17.3 mph 21.9 mph N/A   Partly Cloudy
7:55 AM 51.8 °F - 37.4 °F 58% 29.88 in 10.0 mi WNW 17.3 mph 24.2 mph N/A   Mostly Cloudy
8:15 AM 53.6 °F - 37.4 °F 54% 29.88 in 10.0 mi WNW 11.5 mph 19.6 mph N/A   Overcast
8:35 AM 53.6 °F - 37.4 °F 54% 29.88 in 10.0 mi WNW 15.0 mph 25.3 mph N/A   Overcast
8:55 AM 53.6 °F - 37.4 °F 54% 29.89 in 10.0 mi NNW 13.8 mph - N/A   Overcast
9:15 AM 53.6 °F - 37.4 °F 54% 29.89 in 10.0 mi NW 15.0 mph - N/A   Mostly Cloudy
9:35 AM 53.6 °F - 37.4 °F 54% 29.89 in 10.0 mi NW 16.1 mph - N/A   Mostly Cloudy
9:55 AM 55.4 °F - 35.6 °F 47% 29.89 in 10.0 mi NW 17.3 mph 21.9 mph N/A   Mostly Cloudy
10:15 AM 55.4 °F - 35.6 °F 47% 29.90 in 10.0 mi NW 19.6 mph 26.5 mph N/A   Mostly Cloudy
10:35 AM 55.4 °F - 35.6 °F 47% 29.90 in 10.0 mi NW 21.9 mph 27.6 mph N/A   Scattered Clouds
10:55 AM 55.4 °F - 32.0 °F 41% 29.91 in 7.0 mi NW 28.8 mph 36.8 mph N/A   Scattered Clouds
11:15 AM 53.6 °F - 33.8 °F 47% 29.91 in 10.0 mi NW 26.5 mph 33.4 mph N/A   Mostly Cloudy
11:35 AM 53.6 °F - 32.0 °F 44% 29.92 in 10.0 mi NW 24.2 mph 33.4 mph N/A   Partly Cloudy
11:55 AM 53.6 °F - 32.0 °F 44% 29.92 in 10.0 mi NW 20.7 mph 33.4 mph N/A   Clear
12:15 PM 53.6 °F - 30.2 °F 41% 29.92 in 6.0 mi NW 29.9 mph 40.3 mph N/A   Clear
12:35 PM 53.6 °F - 30.2 °F 41% 29.92 in 10.0 mi WNW 24.2 mph 33.4 mph N/A   Clear
12:55 PM 55.4 °F - 30.2 °F 38% 29.91 in 8.0 mi NW 21.9 mph 35.7 mph N/A   Clear
1:15 PM 55.4 °F - 28.4 °F 36% 29.92 in 7.0 mi WNW 31.1 mph 44.9 mph N/A   Clear
1:35 PM 55.4 °F - 26.6 °F 33% 29.91 in 4.0 mi NW 33.4 mph 43.7 mph N/A   Partly Cloudy
2:15 PM 55.4 °F - 39.2 °F 54% 29.92 in 8.0 mi NW 25.3 mph 36.8 mph N/A   Unknown
2:35 PM 55.4 °F - 15.8 °F 21% 29.92 in 6.0 mi NW 28.8 mph 40.3 mph N/A   Partly Cloudy
2:55 PM 55.4 °F - 19.4 °F 25% 29.92 in 10.0 mi NW 27.6 mph 34.5 mph N/A   Clear
3:15 PM 55.4 °F - 17.6 °F 23% 29.92 in 10.0 mi NW 27.6 mph 35.7 mph N/A   Clear
3:35 PM 55.4 °F - 15.8 °F 21% 29.93 in 10.0 mi NW 27.6 mph 35.7 mph N/A   Clear
3:55 PM 55.4 °F - 17.6 °F 23% 29.93 in 5.0 mi NW 26.5 mph 35.7 mph N/A   Clear
4:15 PM 53.6 °F - 17.6 °F 24% 29.93 in 2.5 mi NW 32.2 mph 38.0 mph N/A   Partly Cloudy
4:35 PM 53.6 °F - 17.6 °F 24% 29.93 in 9.0 mi NW 24.2 mph 32.2 mph N/A   Clear
4:55 PM 53.6 °F - 17.6 °F 24% 29.93 in 10.0 mi NNW 24.2 mph 33.4 mph N/A   Clear
5:15 PM 53.6 °F - 17.6 °F 24% 29.94 in 10.0 mi NW 24.2 mph 31.1 mph N/A   Clear
5:35 PM 51.8 °F - 15.8 °F 24% 29.94 in 6.0 mi NW 25.3 mph 34.5 mph N/A   Clear
5:55 PM 51.8 °F - 15.8 °F 24% 29.94 in 2.5 mi NW 25.3 mph 33.4 mph N/A   Partly Cloudy
6:15 PM 51.8 °F - 15.8 °F 24% 29.95 in 10.0 mi WNW 21.9 mph 31.1 mph N/A   Partly Cloudy
6:35 PM 50.0 °F - 17.6 °F 28% 29.95 in 10.0 mi NW 19.6 mph 24.2 mph N/A   Clear
6:55 PM 48.2 °F - 19.4 °F 32% 29.96 in 10.0 mi NW 16.1 mph - N/A   Clear
7:15 PM 48.2 °F - 19.4 °F 32% 29.96 in 10.0 mi NW 16.1 mph - N/A   Clear
7:35 PM 46.4 °F 39.5 °F 19.4 °F 34% 29.96 in 10.0 mi NW 17.3 mph - N/A   Clear
7:55 PM 46.4 °F 41.5 °F 19.4 °F 34% 29.97 in 10.0 mi NW 10.4 mph 17.3 mph N/A   Clear
8:35 PM 44.6 °F 38.8 °F 17.6 °F 34% 29.99 in 10.0 mi NW 11.5 mph 17.3 mph N/A   Clear
8:55 PM 42.8 °F 40.1 °F 17.6 °F 36% 29.99 in 10.0 mi North 4.6 mph - N/A   Scattered Clouds
9:15 PM 41.0 °F 39.0 °F 19.4 °F 42% 30.00 in 10.0 mi North 3.5 mph - N/A   Mostly Cloudy
9:35 PM 41.0 °F 35.2 °F 19.4 °F 42% 30.00 in 10.0 mi North 9.2 mph - N/A   Overcast
9:55 PM 39.2 °F 35.0 °F 21.2 °F 49% 30.01 in 10.0 mi NNW 5.8 mph - N/A   Overcast
10:15 PM 41.0 °F 35.8 °F 21.2 °F 45% 30.00 in 10.0 mi NW 8.1 mph - N/A   Overcast
10:35 PM 42.8 °F 38.0 °F 21.2 °F 42% 30.00 in 10.0 mi NW 8.1 mph - N/A   Overcast
10:55 PM 41.0 °F 33.9 °F 21.2 °F 45% 30.00 in 10.0 mi NW 12.7 mph - N/A   Mostly Cloudy
11:15 PM 41.0 °F 34.7 °F 21.2 °F 45% 30.00 in 10.0 mi NW 10.4 mph - N/A   Overcast
11:35 PM 39.2 °F 32.0 °F 21.2 °F 49% 30.00 in 10.0 mi NW 11.5 mph - N/A   Mostly Cloudy
11:55 PM 39.2 °F 33.0 °F 21.2 °F 49% 30.01 in 10.0 mi NW 9.2 mph - N/A   Scattered Clouds